| time (UTC) | temp F | wind direction | speed MPH | gust MPH | rain 1hr in | rain 24hr in | rain mn in | humidity % | barometer mb |
| 20260901021305 | 67 | 178 | 0.0 | 1.0 | 0.00 | 0.00 | 0.00 | 41 | 1015.7 |
| 20260901020804 | 68 | 261 | 0.0 | 1.0 | 0.00 | 0.00 | 0.00 | 40 | 1015.5 |
| 20260901020304 | 68 | 215 | 0.0 | 1.0 | 0.00 | 0.00 | 0.00 | 39 | 1015.5 |
| 20260901015306 | 69 | 192 | 1.0 | 2.0 | 0.00 | 0.00 | 0.00 | 38 | 1015.8 |
| 20260901014804 | 70 | 136 | 1.0 | 3.0 | 0.00 | 0.00 | 0.00 | 37 | 1015.6 |
| 20260901014304 | 71 | 84 | 1.0 | 3.0 | 0.00 | 0.00 | 0.00 | 36 | 1015.4 |
| 20260901013805 | 71 | 245 | 0.0 | 5.0 | 0.00 | 0.00 | 0.00 | 35 | 1015.3 |
| 20260901012804 | 72 | 111 | 1.0 | 3.0 | 0.00 | 0.00 | 0.00 | 34 | 1015.1 |
| 20260901012306 | 73 | 224 | 1.0 | 3.0 | 0.00 | 0.00 | 0.00 | 33 | 1015.3 |
| 20260901011805 | 73 | 144 | 1.0 | 2.0 | 0.00 | 0.00 | 0.00 | 34 | 1015.0 |
| 20260901011305 | 73 | 199 | 1.0 | 3.0 | 0.00 | 0.00 | 0.00 | 33 | 1015.2 |
| 20260901010804 | 74 | 184 | 1.0 | 3.0 | 0.00 | 0.00 | 0.00 | 32 | 1015.1 |
| 20260901010306 | 74 | 221 | 2.0 | 3.0 | 0.00 | 0.00 | 0.00 | 31 | 1015.0 |
| 20260901005804 | 75 | 123 | 1.0 | 2.0 | 0.00 | 0.00 | 0.00 | 31 | 1014.9 |
| 20260901005307 | 74 | 234 | 1.0 | 3.0 | 0.00 | 0.00 | 0.00 | 31 | 1015.2 |
| 20260901004306 | 74 | 182 | 1.0 | 5.0 | 0.00 | 0.00 | 0.00 | 32 | 1015.0 |
| 20260901003804 | 74 | 150 | 2.0 | 6.0 | 0.00 | 0.00 | 0.00 | 31 | 1015.2 |
| 20260901002805 | 74 | 187 | 1.0 | 5.0 | 0.00 | 0.00 | 0.00 | 31 | 1015.0 |
| 20260901002307 | 74 | 86 | 2.0 | 6.0 | 0.00 | 0.02 | 0.00 | 31 | 1014.7 |
| 20260901001805 | 75 | 155 | 3.0 | 5.0 | 0.00 | 0.02 | 0.00 | 31 | 1014.9 |
| 20260901001305 | 75 | 182 | 1.0 | 3.0 | 0.00 | 0.02 | 0.00 | 31 | 1014.8 |
| 20260901000805 | 74 | 196 | 2.0 | 8.0 | 0.00 | 0.02 | 0.00 | 31 | 1015.2 |
| 20260901000306 | 74 | 168 | 3.0 | 8.0 | 0.00 | 0.02 | 0.00 | 31 | 1015.1 |
| 20260831235804 | 75 | 195 | 3.0 | 7.0 | 0.00 | 0.02 | 0.00 | 31 | 1014.9 |
| 20260831235306 | 75 | 128 | 2.0 | 5.0 | 0.00 | 0.02 | 0.00 | 30 | 1015.1 |
| 20260831234805 | 75 | 173 | 2.0 | 8.0 | 0.00 | 0.02 | 0.00 | 31 | 1015.2 |
| 20260831234305 | 75 | 193 | 2.0 | 8.0 | 0.00 | 0.02 | 0.00 | 31 | 1015.0 |
| 20260831233804 | 75 | 218 | 3.0 | 9.0 | 0.00 | 0.02 | 0.00 | 30 | 1015.0 |
| 20260831233305 | 76 | 138 | 1.0 | 5.0 | 0.00 | 0.02 | 0.00 | 30 | 1014.9 |
| 20260831232805 | 76 | 168 | 2.0 | 5.0 | 0.00 | 0.02 | 0.00 | 30 | 1014.7 |
| 20260831232306 | 75 | 194 | 1.0 | 3.0 | 0.00 | 0.02 | 0.00 | 29 | 1014.9 |
| 20260831231805 | 75 | 133 | 2.0 | 6.0 | 0.00 | 0.02 | 0.00 | 31 | 1014.9 |
| 20260831231305 | 76 | 160 | 3.0 | 7.0 | 0.00 | 0.02 | 0.00 | 29 | 1014.7 |
| 20260831230305 | 76 | 133 | 1.0 | 5.0 | 0.00 | 0.02 | 0.00 | 30 | 1014.9 |
| 20260831225804 | 76 | 204 | 2.0 | 8.0 | 0.00 | 0.02 | 0.00 | 29 | 1015.0 |
| 20260831225306 | 76 | 140 | 1.0 | 3.0 | 0.00 | 0.02 | 0.00 | 30 | 1014.8 |
| 20260831224305 | 76 | 214 | 1.0 | 3.0 | 0.00 | 0.02 | 0.00 | 30 | 1015.2 |
| 20260831223804 | 75 | 174 | 3.0 | 9.0 | 0.00 | 0.02 | 0.00 | 30 | 1015.2 |
| 20260831222805 | 76 | 173 | 2.0 | 7.0 | 0.00 | 0.02 | 0.00 | 29 | 1015.1 |
| 20260831222306 | 76 | 101 | 1.0 | 3.0 | 0.00 | 0.02 | 0.00 | 29 | 1014.9 |
| 20260831221805 | 76 | 169 | 2.0 | 5.0 | 0.00 | 0.02 | 0.00 | 29 | 1015.3 |
| 20260831221304 | 76 | 186 | 2.0 | 7.0 | 0.00 | 0.02 | 0.00 | 29 | 1015.1 |
| 20260831215805 | 75 | 232 | 2.0 | 8.0 | 0.00 | 0.02 | 0.00 | 29 | 1015.3 |
| 20260831215306 | 75 | 240 | 2.0 | 6.0 | 0.00 | 0.02 | 0.00 | 28 | 1015.3 |
| 20260831214805 | 75 | 319 | 2.0 | 8.0 | 0.00 | 0.02 | 0.00 | 28 | 1015.3 |
| 20260831214306 | 75 | 219 | 1.0 | 7.0 | 0.00 | 0.02 | 0.00 | 29 | 1015.5 |
| 20260831213804 | 74 | 228 | 4.0 | 8.0 | 0.00 | 0.02 | 0.00 | 28 | 1015.4 |
| 20260831213305 | 75 | 214 | 3.0 | 7.0 | 0.00 | 0.02 | 0.00 | 27 | 1015.4 |
| 20260831212805 | 75 | 223 | 5.0 | 7.0 | 0.00 | 0.02 | 0.00 | 27 | 1015.4 |
| 20260831212306 | 74 | 160 | 0.0 | 6.0 | 0.00 | 0.02 | 0.00 | 28 | 1015.5 |
| 20260831211804 | 74 | 244 | 3.0 | 7.0 | 0.00 | 0.02 | 0.00 | 27 | 1015.5 |
| 20260831210305 | 74 | 226 | 2.0 | 5.0 | 0.00 | 0.02 | 0.00 | 29 | 1015.5 |
| 20260831205804 | 74 | 233 | 2.0 | 10.0 | 0.00 | 0.02 | 0.00 | 29 | 1015.8 |
| 20260831204805 | 73 | 240 | 2.0 | 6.0 | 0.00 | 0.02 | 0.00 | 31 | 1015.9 |
| 20260831204305 | 73 | 81 | 2.0 | 6.0 | 0.00 | 0.02 | 0.00 | 31 | 1016.0 |
| 20260831203804 | 73 | 259 | 2.0 | 5.0 | 0.00 | 0.02 | 0.00 | 30 | 1015.8 |
| 20260831203305 | 73 | 244 | 2.0 | 7.0 | 0.00 | 0.02 | 0.00 | 31 | 1016.0 |
| 20260831202805 | 73 | 240 | 3.0 | 7.0 | 0.00 | 0.02 | 0.00 | 31 | 1016.2 |
| 20260831202306 | 73 | 220 | 4.0 | 8.0 | 0.00 | 0.02 | 0.00 | 31 | 1016.1 |
| 20260831201304 | 72 | 258 | 2.0 | 6.0 | 0.00 | 0.02 | 0.00 | 33 | 1016.4 |
| 20260831200805 | 72 | 267 | 2.0 | 3.0 | 0.00 | 0.02 | 0.00 | 33 | 1016.5 |
| 20260831200305 | 72 | 353 | 1.0 | 5.0 | 0.00 | 0.02 | 0.00 | 34 | 1016.4 |
| 20260831195804 | 73 | 187 | 2.0 | 3.0 | 0.00 | 0.02 | 0.00 | 32 | 1016.4 |
| 20260831195306 | 72 | 142 | 2.0 | 6.0 | 0.00 | 0.02 | 0.00 | 33 | 1016.6 |
| 20260831194805 | 72 | 133 | 2.0 | 5.0 | 0.00 | 0.02 | 0.00 | 33 | 1016.7 |
| 20260831194305 | 71 | 169 | 1.0 | 5.0 | 0.00 | 0.02 | 0.00 | 32 | 1016.8 |
| 20260831193305 | 71 | 255 | 2.0 | 5.0 | 0.00 | 0.02 | 0.00 | 32 | 1016.8 |
| 20260831192805 | 71 | 221 | 3.0 | 6.0 | 0.00 | 0.02 | 0.00 | 32 | 1017.0 |
| 20260831192305 | 71 | 237 | 2.0 | 8.0 | 0.00 | 0.02 | 0.00 | 31 | 1016.9 |
| 20260831191804 | 71 | 235 | 3.0 | 6.0 | 0.00 | 0.02 | 0.00 | 33 | 1017.0 |
| 20260831191305 | 70 | 232 | 2.0 | 6.0 | 0.00 | 0.02 | 0.00 | 33 | 1017.2 |
| 20260831190304 | 70 | 230 | 4.0 | 10.0 | 0.00 | 0.02 | 0.00 | 33 | 1017.3 |
| 20260831185306 | 70 | 248 | 1.0 | 5.0 | 0.00 | 0.02 | 0.00 | 33 | 1017.3 |
| 20260831184805 | 71 | 241 | 1.0 | 2.0 | 0.00 | 0.02 | 0.00 | 33 | 1017.3 |
| 20260831184304 | 70 | 239 | 1.0 | 3.0 | 0.00 | 0.02 | 0.00 | 35 | 1017.3 |
| 20260831183805 | 70 | 242 | 2.0 | 5.0 | 0.00 | 0.02 | 0.00 | 35 | 1017.3 |
| 20260831183304 | 71 | 180 | 3.0 | 5.0 | 0.00 | 0.02 | 0.00 | 34 | 1017.3 |
| 20260831182805 | 71 | 75 | 1.0 | 3.0 | 0.00 | 0.02 | 0.00 | 35 | 1017.5 |
| 20260831181805 | 71 | 17 | 1.0 | 2.0 | 0.00 | 0.02 | 0.00 | 36 | 1017.6 |
| 20260831181304 | 68 | 83 | 1.0 | 3.0 | 0.00 | 0.02 | 0.00 | 39 | 1017.9 |
| 20260831180806 | 68 | 36 | 1.0 | 2.0 | 0.00 | 0.02 | 0.00 | 39 | 1018.0 |
| 20260831175805 | 69 | 23 | 3.0 | 6.0 | 0.00 | 0.02 | 0.00 | 42 | 1017.9 |
| 20260831175306 | 69 | 274 | 2.0 | 5.0 | 0.00 | 0.02 | 0.00 | 42 | 1018.0 |
| 20260831174304 | 69 | 31 | 0.0 | 2.0 | 0.00 | 0.02 | 0.00 | 40 | 1018.0 |
| 20260831173804 | 69 | 296 | 0.0 | 6.0 | 0.00 | 0.02 | 0.00 | 42 | 1018.3 |
| 20260831173305 | 68 | 275 | 1.0 | 5.0 | 0.00 | 0.02 | 0.00 | 42 | 1018.5 |
| 20260831172804 | 67 | 58 | 1.0 | 5.0 | 0.00 | 0.02 | 0.00 | 43 | 1018.6 |
| 20260831172306 | 67 | 0 | 2.0 | 7.0 | 0.00 | 0.02 | 0.00 | 43 | 1018.4 |
| 20260831171805 | 67 | 15 | 1.0 | 6.0 | 0.00 | 0.02 | 0.00 | 43 | 1018.4 |
| 20260831171304 | 67 | 0 | 2.0 | 6.0 | 0.00 | 0.02 | 0.00 | 44 | 1018.3 |
| 20260831170805 | 66 | 7 | 1.0 | 3.0 | 0.00 | 0.02 | 0.00 | 45 | 1018.4 |
| 20260831170305 | 65 | 216 | 1.0 | 6.0 | 0.00 | 0.02 | 0.00 | 43 | 1018.7 |
| 20260831165804 | 66 | 269 | 3.0 | 7.0 | 0.00 | 0.02 | 0.00 | 45 | 1018.7 |
| 20260831165305 | 66 | 352 | 1.0 | 5.0 | 0.00 | 0.02 | 0.00 | 45 | 1018.5 |
| 20260831164804 | 66 | 266 | 3.0 | 5.0 | 0.00 | 0.02 | 0.00 | 44 | 1018.6 |
| 20260831163805 | 66 | 283 | 2.0 | 6.0 | 0.00 | 0.02 | 0.00 | 44 | 1018.7 |
| 20260831163304 | 65 | 257 | 2.0 | 5.0 | 0.00 | 0.02 | 0.00 | 45 | 1018.8 |
| 20260831162804 | 65 | 297 | 1.0 | 5.0 | 0.00 | 0.02 | 0.00 | 48 | 1018.8 |
| 20260831162306 | 64 | 353 | 2.0 | 5.0 | 0.00 | 0.02 | 0.00 | 49 | 1019.1 |
| 20260831161805 | 64 | 318 | 2.0 | 7.0 | 0.00 | 0.02 | 0.00 | 48 | 1018.9 |
| 20260831161305 | 64 | 348 | 2.0 | 7.0 | 0.00 | 0.02 | 0.00 | 49 | 1018.9 |
| 20260831160804 | 63 | 358 | 3.0 | 7.0 | 0.00 | 0.02 | 0.00 | 49 | 1019.2 |
| 20260831160305 | 63 | 297 | 2.0 | 6.0 | 0.00 | 0.02 | 0.00 | 48 | 1019.0 |
| 20260831155805 | 63 | 282 | 1.0 | 6.0 | 0.00 | 0.02 | 0.00 | 50 | 1019.0 |
| 20260831154804 | 63 | 266 | 2.0 | 6.0 | 0.00 | 0.02 | 0.00 | 50 | 1019.0 |
| 20260831154305 | 63 | 336 | 1.0 | 6.0 | 0.00 | 0.02 | 0.00 | 52 | 1018.8 |
| 20260831152805 | 62 | 326 | 2.0 | 6.0 | 0.00 | 0.03 | 0.00 | 53 | 1019.4 |
| 20260831152306 | 61 | 351 | 2.0 | 5.0 | 0.00 | 0.03 | 0.00 | 54 | 1019.1 |
| 20260831151805 | 61 | 254 | 2.0 | 3.0 | 0.00 | 0.04 | 0.00 | 53 | 1019.0 |
| 20260831150805 | 59 | 345 | 1.0 | 5.0 | 0.00 | 0.04 | 0.00 | 57 | 1019.4 |
| 20260831145306 | 58 | 350 | 1.0 | 5.0 | 0.00 | 0.04 | 0.00 | 58 | 1019.5 |
| 20260831144805 | 58 | 0 | 1.0 | 3.0 | 0.00 | 0.04 | 0.00 | 57 | 1019.6 |
| 20260831143804 | 57 | 351 | 1.0 | 3.0 | 0.00 | 0.04 | 0.00 | 58 | 1019.4 |
| 20260831143305 | 57 | 311 | 1.0 | 3.0 | 0.00 | 0.04 | 0.00 | 58 | 1019.6 |
| 20260831142804 | 56 | 337 | 1.0 | 3.0 | 0.00 | 0.04 | 0.00 | 58 | 1019.6 |
| 20260831142306 | 56 | 304 | 1.0 | 2.0 | 0.00 | 0.04 | 0.00 | 57 | 1019.5 |
| 20260831141304 | 56 | 265 | 0.0 | 2.0 | 0.00 | 0.04 | 0.00 | 60 | 1019.4 |
| 20260831140804 | 56 | 264 | 0.0 | 2.0 | 0.00 | 0.04 | 0.00 | 61 | 1019.6 |
| 20260831140305 | 55 | 256 | 0.0 | 0.0 | 0.00 | 0.04 | 0.00 | 63 | 1019.5 |
| 20260831135804 | 54 | 256 | 0.0 | 1.0 | 0.00 | 0.04 | 0.00 | 65 | 1019.5 |
| 20260831135306 | 54 | 256 | 0.0 | 1.0 | 0.00 | 0.04 | 0.00 | 65 | 1019.5 |
| 20260831134806 | 54 | 256 | 0.0 | 0.0 | 0.00 | 0.04 | 0.00 | 65 | 1019.4 |
| 20260831134305 | 54 | 255 | 0.0 | 0.0 | 0.00 | 0.04 | 0.00 | 65 | 1019.5 |
| 20260831133804 | 54 | 256 | 0.0 | 0.0 | 0.00 | 0.04 | 0.00 | 65 | 1019.6 |
| 20260831133305 | 54 | 256 | 0.0 | 1.0 | 0.00 | 0.04 | 0.00 | 65 | 1019.3 |
| 20260831132805 | 53 | 255 | 0.0 | 1.0 | 0.00 | 0.04 | 0.00 | 65 | 1019.4 |
| 20260831131805 | 53 | 256 | 0.0 | 0.0 | 0.00 | 0.04 | 0.00 | 68 | 1019.4 |
| 20260831131305 | 53 | 256 | 0.0 | 0.0 | 0.00 | 0.04 | 0.00 | 69 | 1019.3 |
| 20260831130805 | 53 | 256 | 0.0 | 0.0 | 0.00 | 0.04 | 0.00 | 69 | 1019.1 |
| 20260831130305 | 53 | 256 | 0.0 | 0.0 | 0.00 | 0.04 | 0.00 | 68 | 1018.9 |
| 20260831125306 | 53 | 255 | 1.0 | 2.0 | 0.00 | 0.04 | 0.00 | 68 | 1019.0 |
| 20260831124805 | 53 | 255 | 0.0 | 1.0 | 0.00 | 0.04 | 0.00 | 69 | 1019.0 |
| 20260831124305 | 53 | 255 | 0.0 | 0.0 | 0.00 | 0.04 | 0.00 | 69 | 1019.0 |
| 20260831123805 | 53 | 255 | 0.0 | 0.0 | 0.00 | 0.04 | 0.00 | 68 | 1018.8 |
| 20260831122805 | 53 | 255 | 0.0 | 1.0 | 0.00 | 0.04 | 0.00 | 67 | 1018.8 |
| 20260831122306 | 54 | 255 | 0.0 | 1.0 | 0.00 | 0.04 | 0.00 | 67 | 1018.2 |
| 20260831121805 | 54 | 255 | 0.0 | 2.0 | 0.00 | 0.04 | 0.00 | 68 | 1018.3 |
| 20260831121305 | 53 | 256 | 1.0 | 1.0 | 0.00 | 0.04 | 0.00 | 68 | 1018.4 |
| 20260831120805 | 53 | 256 | 0.0 | 1.0 | 0.00 | 0.04 | 0.00 | 68 | 1018.2 |
| 20260831120304 | 53 | 256 | 0.0 | 1.0 | 0.00 | 0.04 | 0.00 | 69 | 1018.1 |
| 20260831115805 | 53 | 256 | 0.0 | 1.0 | 0.00 | 0.04 | 0.00 | 70 | 1018.2 |
| 20260831114805 | 53 | 256 | 0.0 | 0.0 | 0.00 | 0.04 | 0.00 | 71 | 1018.0 |
| 20260831113805 | 54 | 256 | 0.0 | 1.0 | 0.00 | 0.04 | 0.00 | 69 | 1017.8 |
| 20260831113305 | 54 | 256 | 1.0 | 2.0 | 0.00 | 0.04 | 0.00 | 69 | 1017.6 |
| 20260831112806 | 54 | 252 | 1.0 | 5.0 | 0.00 | 0.04 | 0.00 | 68 | 1017.6 |
| 20260831112307 | 55 | 245 | 1.0 | 5.0 | 0.00 | 0.04 | 0.00 | 68 | 1017.3 |
| 20260831111805 | 55 | 258 | 1.0 | 2.0 | 0.00 | 0.04 | 0.00 | 68 | 1017.1 |
| 20260831111304 | 55 | 257 | 1.0 | 2.0 | 0.00 | 0.04 | 0.00 | 68 | 1017.3 |
| 20260831110304 | 55 | 256 | 0.0 | 2.0 | 0.00 | 0.04 | 0.00 | 68 | 1017.3 |
| 20260831105804 | 55 | 260 | 1.0 | 3.0 | 0.00 | 0.04 | 0.00 | 68 | 1016.9 |
| 20260831104805 | 55 | 244 | 1.0 | 3.0 | 0.00 | 0.04 | 0.00 | 68 | 1016.8 |
| 20260831103804 | 55 | 258 | 1.0 | 3.0 | 0.00 | 0.04 | 0.00 | 69 | 1016.8 |
| 20260831103305 | 55 | 253 | 1.0 | 2.0 | 0.00 | 0.04 | 0.00 | 70 | 1016.7 |
| 20260831102804 | 55 | 260 | 0.0 | 2.0 | 0.00 | 0.04 | 0.00 | 70 | 1016.8 |
| 20260831102306 | 55 | 264 | 2.0 | 5.0 | 0.00 | 0.04 | 0.00 | 69 | 1016.5 |
| 20260831101805 | 55 | 264 | 3.0 | 6.0 | 0.00 | 0.04 | 0.00 | 69 | 1016.4 |
| 20260831100804 | 55 | 265 | 3.0 | 7.0 | 0.00 | 0.04 | 0.00 | 69 | 1016.6 |
| 20260831095805 | 56 | 264 | 2.0 | 6.0 | 0.00 | 0.04 | 0.00 | 68 | 1016.4 |
| 20260831095306 | 56 | 267 | 2.0 | 6.0 | 0.00 | 0.04 | 0.00 | 68 | 1016.3 |
| 20260831094305 | 56 | 248 | 2.0 | 7.0 | 0.00 | 0.04 | 0.00 | 69 | 1016.4 |
| 20260831093805 | 56 | 256 | 3.0 | 7.0 | 0.00 | 0.04 | 0.00 | 69 | 1016.4 |
| 20260831093305 | 56 | 262 | 2.0 | 5.0 | 0.00 | 0.04 | 0.00 | 70 | 1016.6 |
| 20260831092804 | 56 | 297 | 1.0 | 3.0 | 0.00 | 0.04 | 0.00 | 70 | 1016.7 |
| 20260831092306 | 56 | 276 | 1.0 | 5.0 | 0.00 | 0.04 | 0.00 | 70 | 1016.6 |
| 20260831091804 | 56 | 339 | 2.0 | 5.0 | 0.00 | 0.04 | 0.00 | 70 | 1016.7 |
| 20260831091305 | 56 | 260 | 1.0 | 7.0 | 0.00 | 0.04 | 0.00 | 70 | 1016.7 |
| 20260831090804 | 56 | 269 | 2.0 | 5.0 | 0.00 | 0.04 | 0.00 | 69 | 1016.6 |
| 20260831090305 | 56 | 262 | 2.0 | 8.0 | 0.00 | 0.04 | 0.00 | 69 | 1016.5 |
| 20260831085306 | 56 | 269 | 2.0 | 6.0 | 0.00 | 0.04 | 0.00 | 69 | 1016.8 |
| 20260831084804 | 56 | 270 | 2.0 | 7.0 | 0.00 | 0.04 | 0.00 | 69 | 1016.7 |
| 20260831084305 | 56 | 243 | 3.0 | 7.0 | 0.00 | 0.04 | 0.00 | 68 | 1016.5 |
| 20260831083805 | 56 | 193 | 1.0 | 8.0 | 0.00 | 0.04 | 0.00 | 68 | 1016.5 |
| 20260831083304 | 57 | 5 | 2.0 | 8.0 | 0.00 | 0.04 | 0.00 | 68 | 1016.3 |
| 20260831082804 | 57 | 236 | 2.0 | 9.0 | 0.00 | 0.04 | 0.00 | 66 | 1016.2 |
| 20260831082306 | 57 | 359 | 2.0 | 8.0 | 0.00 | 0.04 | 0.00 | 65 | 1016.1 |
| 20260831081304 | 57 | 340 | 2.0 | 6.0 | 0.00 | 0.04 | 0.00 | 64 | 1016.1 |
| 20260831080804 | 57 | 267 | 2.0 | 8.0 | 0.00 | 0.04 | 0.00 | 63 | 1016.0 |
| 20260831075806 | 58 | 272 | 2.0 | 10.0 | 0.00 | 0.04 | 0.00 | 62 | 1016.4 |
| 20260831074804 | 57 | 251 | 3.0 | 8.0 | 0.00 | 0.04 | 0.00 | 62 | 1016.7 |
| 20260831074304 | 57 | 246 | 2.0 | 6.0 | 0.00 | 0.04 | 0.00 | 63 | 1016.7 |
| 20260831073805 | 57 | 235 | 2.0 | 5.0 | 0.00 | 0.04 | 0.00 | 63 | 1016.7 |
| 20260831073304 | 57 | 253 | 2.0 | 6.0 | 0.00 | 0.04 | 0.00 | 63 | 1016.8 |
| 20260831072804 | 57 | 275 | 3.0 | 7.0 | 0.00 | 0.04 | 0.00 | 63 | 1016.7 |
| 20260831072306 | 57 | 281 | 3.0 | 7.0 | 0.00 | 0.04 | 0.00 | 63 | 1016.8 |
| 20260831071806 | 57 | 265 | 2.0 | 7.0 | 0.00 | 0.04 | 0.00 | 64 | 1016.3 |
| 20260831070804 | 57 | 315 | 3.0 | 7.0 | 0.00 | 0.04 | 0.00 | 64 | 1016.4 |
| 20260831070305 | 57 | 258 | 2.0 | 6.0 | 0.00 | 0.04 | 0.00 | 63 | 1016.6 |
| 20260831065805 | 57 | 263 | 2.0 | 6.0 | 0.00 | 0.04 | 0.00 | 63 | 1016.5 |
| 20260831065306 | 57 | 320 | 2.0 | 7.0 | 0.00 | 0.04 | 0.00 | 63 | 1016.7 |
| 20260831064305 | 57 | 270 | 2.0 | 5.0 | 0.00 | 0.04 | 0.00 | 62 | 1016.4 |
| 20260831063805 | 57 | 267 | 1.0 | 5.0 | 0.00 | 0.04 | 0.00 | 61 | 1016.6 |
| 20260831062805 | 57 | 306 | 2.0 | 6.0 | 0.00 | 0.04 | 0.00 | 61 | 1016.5 |
| 20260831062306 | 57 | 312 | 1.0 | 8.0 | 0.00 | 0.04 | 0.00 | 62 | 1016.5 |
| 20260831061804 | 57 | 337 | 1.0 | 8.0 | 0.00 | 0.04 | 0.00 | 61 | 1016.5 |
| 20260831061305 | 57 | 348 | 2.0 | 5.0 | 0.00 | 0.04 | 0.00 | 61 | 1016.7 |
| 20260831060819 | 57 | 322 | 1.0 | 3.0 | 0.00 | 0.04 | 0.00 | 61 | 1016.5 |
| 20260831060305 | 58 | 334 | 1.0 | 6.0 | 0.00 | 0.04 | 0.00 | 61 | 1016.7 |
| 20260831055306 | 57 | 271 | 2.0 | 7.0 | 0.00 | 0.04 | 0.04 | 60 | 1016.7 |
| 20260831054805 | 57 | 238 | 1.0 | 5.0 | 0.00 | 0.04 | 0.04 | 61 | 1016.8 |
| 20260831053804 | 57 | 18 | 3.0 | 8.0 | 0.00 | 0.04 | 0.04 | 62 | 1016.9 |
| 20260831053304 | 57 | 76 | 2.0 | 6.0 | 0.00 | 0.04 | 0.04 | 62 | 1016.8 |
| 20260831052804 | 57 | 259 | 1.0 | 6.0 | 0.00 | 0.04 | 0.04 | 62 | 1016.9 |
| 20260831052307 | 57 | 330 | 2.0 | 5.0 | 0.00 | 0.04 | 0.04 | 61 | 1016.9 |
| 20260831051804 | 57 | 319 | 2.0 | 5.0 | 0.00 | 0.04 | 0.04 | 60 | 1016.7 |
| 20260831051304 | 57 | 29 | 1.0 | 5.0 | 0.00 | 0.04 | 0.04 | 58 | 1016.9 |
| 20260831050805 | 57 | 264 | 2.0 | 7.0 | 0.00 | 0.04 | 0.04 | 57 | 1016.9 |
| 20260831045804 | 57 | 345 | 2.0 | 5.0 | 0.00 | 0.04 | 0.04 | 59 | 1017.0 |
| 20260831045306 | 57 | 346 | 1.0 | 5.0 | 0.00 | 0.04 | 0.04 | 59 | 1016.9 |
| 20260831044805 | 57 | 334 | 2.0 | 6.0 | 0.00 | 0.04 | 0.04 | 59 | 1016.8 |
| 20260831043804 | 57 | 258 | 1.0 | 5.0 | 0.00 | 0.04 | 0.04 | 58 | 1017.3 |
| 20260831043305 | 57 | 233 | 1.0 | 3.0 | 0.00 | 0.04 | 0.04 | 58 | 1017.3 |
| 20260831042805 | 57 | 281 | 1.0 | 3.0 | 0.00 | 0.04 | 0.04 | 58 | 1017.2 |
| 20260831042306 | 57 | 251 | 3.0 | 8.0 | 0.00 | 0.04 | 0.04 | 57 | 1017.4 |
| 20260831040806 | 57 | 26 | 1.0 | 2.0 | 0.00 | 0.04 | 0.04 | 60 | 1017.4 |
| 20260831040304 | 57 | 22 | 1.0 | 6.0 | 0.00 | 0.04 | 0.04 | 58 | 1017.0 |
| 20260831035306 | 57 | 146 | 1.0 | 10.0 | 0.00 | 0.04 | 0.04 | 56 | 1017.1 |
| 20260831034305 | 58 | 10 | 2.0 | 6.0 | 0.00 | 0.04 | 0.04 | 57 | 1017.3 |
| 20260831032805 | 58 | 294 | 1.0 | 5.0 | 0.00 | 0.04 | 0.04 | 57 | 1017.0 |
| 20260831032306 | 59 | 267 | 1.0 | 5.0 | 0.00 | 0.04 | 0.04 | 59 | 1017.0 |
| 20260831031804 | 59 | 263 | 2.0 | 5.0 | 0.00 | 0.04 | 0.04 | 60 | 1016.8 |
| 20260831031304 | 59 | 270 | 1.0 | 7.0 | 0.00 | 0.04 | 0.04 | 62 | 1016.4 |
| 20260831030805 | 59 | 279 | 2.0 | 6.0 | 0.00 | 0.04 | 0.04 | 62 | 1016.5 |
| 20260831030304 | 60 | 255 | 2.0 | 7.0 | 0.00 | 0.04 | 0.04 | 63 | 1016.1 |
| 20260831025804 | 59 | 253 | 2.0 | 7.0 | 0.00 | 0.04 | 0.04 | 63 | 1016.3 |
| 20260831025306 | 59 | 266 | 1.0 | 5.0 | 0.00 | 0.04 | 0.04 | 64 | 1016.1 |
| 20260831024804 | 59 | 254 | 1.0 | 6.0 | 0.00 | 0.04 | 0.04 | 64 | 1016.1 |
| 20260831023305 | 59 | 192 | 1.0 | 6.0 | 0.00 | 0.04 | 0.04 | 65 | 1015.6 |
| 20260831022306 | 60 | 33 | 3.0 | 7.0 | 0.00 | 0.04 | 0.04 | 65 | 1015.7 |